Flag for Belgium Weather past 2 weeks in Brussels, Belgium

Now
60 °F

Refreshingly cool.


Feels Like: 60 °F
Forecast: 49 / 65 °F
Wind: 5 mph from Northwest

Location: Uccle

Current Time: Aug 23, 2014 at 8:19:32 PM

Latest Report: Aug 23, 2014 at 7:00 PM


Visibility: N/A

Pressure: 29.98 "Hg

Humidity: 51%

Dew point: 42 °F

Location of BrusselsLocation

Historic Weather in Brussels — Graph

°F

Brussels temperature yesterday

Maximum temperature yesterday: 62 °F (at 1:00 PM)
Minimum temperature yesterday: 52 °F (at 4:00 AM)
Average temperature yesterday: 57 °F

Past Weeks' High & Low Weather Summary

 TemperatureHumidityPressure
High72 °F (Aug 9, 2:00 PM)94% (Aug 9, 3:00 AM)30.16 "Hg (Aug 9, 3:00 AM)
Low47 °F (Aug 20, 6:00 AM)46% (Aug 21, 3:00 PM)29.53 "Hg (Aug 10, 5:00 PM)
Average59 °F78%29.88 "Hg
* Reported Aug 8 7:00 PM — Aug 23 7:00 PM, Brussels, Weather by CustomWeather, © 2014

Note: Actual official high and low records may vary slightly from our data, if they occured in-between our weather recording intervals... More about our weather records

Advertising

Brussels weather history for previous 24 hours

 ConditionsComfort  
Time TempWeatherWind HumidityBarometerVisibility
7:00 PM
Aug 23
60 °FRefreshingly cool.5 mph51%29.98 "HgN/A
6:00 PM62 °FRefreshingly cool.5 mph50%29.98 "HgN/A
5:00 PM62 °FRefreshingly cool.6 mph49%29.97 "HgN/A
4:00 PM62 °FRefreshingly cool.5 mph55%29.96 "HgN/A
3:00 PM63 °FMild.3 mph64%29.95 "HgN/A
2:00 PM60 °FCool.2 mph78%29.96 "HgN/A
1:00 PM56 °FCool.2 mph77%29.96 "HgN/A
12:00 PM62 °FCool.2 mph74%29.96 "HgN/A
11:00 AM59 °FCool.3 mph79%29.96 "HgN/A
10:00 AM56 °FCool.2 mph93%29.94 "HgN/A
9:00 AM54 °FCool.3 mph94%29.94 "HgN/A
8:00 AM53 °FCool.2 mph94%29.92 "HgN/A
7:00 AM52 °FCool.2 mph94%29.91 "HgN/A
6:00 AM53 °FCool.2 mph94%29.91 "HgN/A
5:00 AM54 °FCool.2 mph94%29.91 "HgN/A
4:00 AM53 °FCool.2 mph94%29.92 "HgN/A
3:00 AM53 °FCool.2 mph94%29.92 "HgN/A
2:00 AM53 °FCool.2 mph93%29.92 "HgN/A
1:00 AM54 °FCool.1 mph92%29.93 "HgN/A
12:00 AM54 °FCool.2 mph92%29.93 "HgN/A
11:00 PM
Aug 22
55 °FCool.1 mph91%29.93 "HgN/A
10:00 PM56 °FCool.2 mph88%29.92 "HgN/A
9:00 PM58 °FCool.2 mph76%29.90 "HgN/A
8:00 PM60 °FCool.6 mph72%29.89 "HgN/A
Weather by CustomWeather, © 2014

See weather overviewHow to use our weather pages